{"data":{"norad_id":66826,"intl_designator":"2025-280F","name":"STARLINK-35898","alt_names":[],"object_type":"PAYLOAD","status":"ACTIVE","operator":null,"country":"US","launch_date":"2025-12-02","launch_site_code":"AFWTR","launch_vehicle":null,"mission":null,"orbit_class":"UNKNOWN","rcs_meters":null,"size_class":null,"mass_kg":null,"dimensions":null,"purposes":["comms"],"wikipedia_slug":null,"has_3d_model":false,"image_url":null,"decayed_at":null,"tle_current":{"epoch":"2026-05-25T03:42:34.977600Z","epoch_age_seconds":58750,"freshness":"FRESH","line1":"1 66826U 25280F   26145.15457150  .00001586  00000+0  14061-3 0  9995","line2":"2 66826  70.0007 141.5000 0004512 262.4210  97.6437 14.98340317 27537","mean_motion":14.98340317,"eccentricity":0.0004512,"inclination_deg":70.0007,"raan_deg":141.5,"arg_perigee_deg":262.421,"mean_anomaly_deg":97.6437,"bstar":0.00014061,"rev_number":2753,"period_min":96.10633736955,"perigee_km":568.88807401886,"apogee_km":575.15989929322,"semimajor_km":6950.160986656,"source":"CELESTRAK","updated_at":"2026-05-25T13:38:21.334394Z"}}}